Flag for Argentina Weather past 2 weeks in Buenos Aires, Argentina

Now
75 °F

Scattered clouds.


Feels Like: 76 °F
Forecast: 69 / 79 °F
Wind: 8 mph from Southwest

Location: Buenos Aires Airport

Current Time: Mar 4, 2015 at 10:44:30 AM

Latest Report: Mar 4, 2015 at 10:00 AM


Visibility: N/A

Pressure: 29.86 "Hg

Humidity: 78%

Dew point: 68 °F

Location of Buenos AiresLocation

Historic Weather in Buenos Aires — Graph

°F

Buenos Aires temperature yesterday

Maximum temperature yesterday: 77 °F (at 3:00 AM)
Minimum temperature yesterday: 70 °F (at 11:00 AM)
Average temperature yesterday: 75 °F

Past Weeks' High & Low Weather Summary

 TemperatureHumidityPressure
High86 °F (Feb 24, 3:00 PM)100% (Mar 3, 11:00 PM)30.12 "Hg (Mar 3, 11:00 PM)
Low57 °F (Feb 20, 7:00 AM)36% (Feb 19, 6:00 PM)29.62 "Hg (Feb 18, 4:00 PM)
Average74 °F73%29.93 "Hg
* Reported Feb 17 9:00 AM — Mar 4 9:00 AM, Buenos Aires, Weather by CustomWeather, © 2015

Note: Actual official high and low records may vary slightly from our data, if they occured in-between our weather recording intervals... More about our weather records

Advertising

Buenos Aires weather history for previous 24 hours

 ConditionsComfort  
Time TempWeatherWind HumidityBarometerVisibility
9:00 AM
Wed, Mar 4
73 °FBroken clouds.9 mph83%29.83 "Hg4 mi
8:00 AM72 °FMore clouds than sun.9 mph88%29.83 "Hg4 mi
7:00 AM72 °FMore clouds than sun.8 mph88%29.80 "HgN/A
6:00 AM72 °FMore clouds than sun.6 mph88%29.80 "HgN/A
5:00 AM73 °FPassing clouds.7 mph83%29.77 "HgN/A
4:00 AM73 °FPassing clouds.3 mph89%29.77 "HgN/A
3:00 AM72 °FPassing clouds.5 mph94%29.80 "HgN/A
2:00 AM72 °FPassing clouds.12 mph94%29.80 "HgN/A
1:00 AM72 °FPassing clouds.10 mph88%29.83 "HgN/A
12:00 AM73 °FPassing clouds.7 mph89%29.83 "HgN/A
11:00 PM
Tue, Mar 3
72 °FPassing clouds.14 mph100%29.83 "HgN/A
10:00 PM73 °FPassing clouds.16 mph83%29.83 "HgN/A
9:00 PM73 °FLight rain. Partly cloudy.13 mph94%29.83 "Hg4 mi
8:00 PM75 °FPartly cloudy.12 mph89%29.80 "Hg6 mi
7:00 PM75 °FPartly cloudy.14 mph89%29.80 "HgN/A
6:00 PM77 °FOvercast.7 mph83%29.80 "HgN/A
5:00 PM75 °FMore clouds than sun.8 mph89%29.80 "HgN/A
4:00 PM75 °FMore clouds than sun.8 mph89%29.80 "HgN/A
2:00 PM75 °FMore clouds than sun.5 mph89%29.86 "HgN/A
1:00 PM73 °FOvercast.7 mph89%29.86 "HgN/A
12:00 PM73 °FLight rain. Overcast.8 mph83%29.89 "Hg6 mi
11:00 AM70 °FThunderstorms. More clouds than sun.3 mph94%29.89 "Hg2 mi
10:00 AM77 °FMore clouds than sun.9 mph79%29.86 "HgN/A
Weather by CustomWeather, © 2015

See weather overviewHow to use our weather pages